AMAZONAS NEXUS

Last updated on Tue Sep 22 2026 00:03:16 GMT+0000 (Coordinated Universal Time)

1 55508U 23017A 26264.23980304 -.00000286 00000+0 00000+0 0 9990 2 55508 0.0456 21.0069 0002661 114.3979 250.0654 1.00270849 8008
UTC large
Height (km)
Speed (km/s)
/
Latitude / Longitude
Inclination (degrees)
Orbital Period (minutes)
Azimuth
Elevation
Range (km)
Doppler Factor

Next 0 passes for location: London (51.5072 / 0.1276)

No passes found over London.
AMAZONAS NEXUS